TimeMDT,TemperatureF,Dew PointF,Humidity,Sea Level PressureIn,VisibilityMPH,Wind Direction,Wind SpeedMPH,Gust SpeedMPH,PrecipitationIn,Events,Conditions,WindDirDegrees,DateUTC
12:52 AM,39.9,37.9,93,30.21,-9999.0,Variable,4.6,-,N/A,,Unknown,0,2013-03-31 06:52:00
1:52 AM,39.0,37.0,93,30.21,-9999.0,North,3.5,-,N/A,,Unknown,360,2013-03-31 07:52:00
2:52 AM,37.9,36.0,93,30.20,-9999.0,NNW,4.6,-,N/A,,Unknown,340,2013-03-31 08:52:00
3:52 AM,37.0,35.1,93,30.19,-9999.0,Variable,3.5,-,N/A,,Unknown,0,2013-03-31 09:52:00
4:52 AM,36.0,35.1,97,30.20,-9999.0,North,4.6,-,N/A,,Unknown,350,2013-03-31 10:52:00
5:52 AM,35.1,34.0,96,30.21,-9999.0,Variable,3.5,-,N/A,,Unknown,0,2013-03-31 11:52:00
6:52 AM,34.0,33.1,96,30.22,-9999.0,Variable,4.6,-,N/A,,Unknown,0,2013-03-31 12:52:00
7:52 AM,34.0,33.1,96,30.24,-9999.0,NW,3.5,-,N/A,,Unknown,310,2013-03-31 13:52:00
8:52 AM,34.0,32.0,92,30.23,-9999.0,NNW,4.6,-,N/A,,Unknown,340,2013-03-31 14:52:00
9:52 AM,41.0,36.0,82,30.20,-9999.0,Calm,Calm,-,N/A,,Unknown,0,2013-03-31 15:52:00
10:52 AM,46.9,37.0,68,30.16,-9999.0,Calm,Calm,-,N/A,,Unknown,0,2013-03-31 16:52:00
11:52 AM,52.0,37.0,57,30.12,-9999.0,Calm,Calm,-,N/A,,Unknown,0,2013-03-31 17:52:00
12:52 PM,59.0,37.0,44,30.07,-9999.0,Calm,Calm,-,N/A,,Unknown,0,2013-03-31 18:52:00
1:52 PM,64.0,37.0,37,30.01,-9999.0,North,4.6,-,N/A,,Unknown,360,2013-03-31 19:52:00
2:52 PM,68.0,37.9,33,29.96,-9999.0,South,4.6,-,N/A,,Unknown,180,2013-03-31 20:52:00
3:52 PM,71.1,39.0,31,29.93,-9999.0,SSE,4.6,-,N/A,,Unknown,160,2013-03-31 21:52:00
4:52 PM,70.0,39.9,33,29.91,-9999.0,South,5.8,-,N/A,,Unknown,170,2013-03-31 22:52:00
5:52 PM,60.1,46.0,60,29.91,-9999.0,Calm,Calm,-,N/A,,Unknown,0,2013-03-31 23:52:00
6:52 PM,55.0,45.0,69,29.91,-9999.0,Calm,Calm,-,N/A,,Unknown,0,2013-04-01 00:52:00
7:52 PM,50.0,44.1,80,29.93,-9999.0,Calm,Calm,-,N/A,,Unknown,0,2013-04-01 01:52:00
8:52 PM,48.0,43.0,83,29.95,-9999.0,Calm,Calm,-,N/A,,Unknown,0,2013-04-01 02:52:00
9:52 PM,46.9,41.0,80,29.96,-9999.0,NNW,3.5,-,N/A,,Unknown,340,2013-04-01 03:52:00
10:52 PM,45.0,41.0,86,29.97,-9999.0,Calm,Calm,-,N/A,,Unknown,0,2013-04-01 04:52:00
11:52 PM,43.0,39.9,89,29.98,-9999.0,NNW,3.5,-,N/A,,Unknown,340,2013-04-01 05:52:00